Year,Month,Day,Hour,Minute,Value (Times are PST for windgust in km/hr)
2015,08,30,00,00,8.10
2015,08,30,00,01,8.10
2015,08,30,00,02,4.80
2015,08,30,00,03,1.60
2015,08,30,00,04,4.80
2015,08,30,00,05,4.80
2015,08,30,00,06,4.80
2015,08,30,00,07,3.20
2015,08,30,00,08,3.20
2015,08,30,00,13,3.20
2015,08,30,00,14,3.20
2015,08,30,00,15,9.60
2015,08,30,00,16,14.50
2015,08,30,00,17,1.60
2015,08,30,00,18,1.60
2015,08,30,00,19,3.20
2015,08,30,00,23,6.40
2015,08,30,01,18,3.20
2015,08,30,01,19,1.60
2015,08,30,01,21,4.80
2015,08,30,01,22,3.20
2015,08,30,01,32,3.20
2015,08,30,01,39,9.60
2015,08,30,01,40,9.60
2015,08,30,01,41,4.80
2015,08,30,01,42,4.80
2015,08,30,01,43,6.40
2015,08,30,02,06,1.60
2015,08,30,02,07,6.40
2015,08,30,02,08,6.40
2015,08,30,02,09,4.80
2015,08,30,02,10,4.80
2015,08,30,02,11,6.40
2015,08,30,02,12,8.10
2015,08,30,02,13,1.60
2015,08,30,02,14,6.40
2015,08,30,02,15,4.80
2015,08,30,02,16,1.60
2015,08,30,02,17,4.80
2015,08,30,02,29,1.60
2015,08,30,02,33,1.60
2015,08,30,05,18,1.60
2015,08,30,06,29,4.80
2015,08,30,06,30,4.80
2015,08,30,06,34,6.40
2015,08,30,06,35,6.40
2015,08,30,07,24,4.80
2015,08,30,07,25,4.80
2015,08,30,07,26,6.40
2015,08,30,07,29,8.10
2015,08,30,07,30,6.40
2015,08,30,07,31,6.40
2015,08,30,07,32,6.40
2015,08,30,07,33,3.20
2015,08,30,07,34,4.80
2015,08,30,07,35,4.80
2015,08,30,07,36,6.40
2015,08,30,07,37,4.80
2015,08,30,07,38,3.20
2015,08,30,07,39,1.60
2015,08,30,07,41,4.80
2015,08,30,07,42,4.80
2015,08,30,07,43,3.20
2015,08,30,07,44,3.20
2015,08,30,07,45,3.20
2015,08,30,07,46,3.20
2015,08,30,07,47,3.20
2015,08,30,07,48,3.20
2015,08,30,07,49,3.20
2015,08,30,07,50,4.80
2015,08,30,07,51,3.20
2015,08,30,07,52,1.60
2015,08,30,07,53,3.20
2015,08,30,07,54,3.20
2015,08,30,07,55,3.20
2015,08,30,08,01,6.40
2015,08,30,08,02,6.40
2015,08,30,08,03,8.10
2015,08,30,08,04,8.10
2015,08,30,08,05,11.30
2015,08,30,08,06,14.50
2015,08,30,08,07,9.60
2015,08,30,08,08,14.50
2015,08,30,08,09,11.30
2015,08,30,08,10,4.80
2015,08,30,08,11,6.40
2015,08,30,08,12,14.50
2015,08,30,08,13,11.30
2015,08,30,08,14,12.90
2015,08,30,08,15,9.60
2015,08,30,08,16,16.10
2015,08,30,08,17,14.50
2015,08,30,08,18,9.60
2015,08,30,08,19,11.30
2015,08,30,08,20,9.60
2015,08,30,08,21,6.40
2015,08,30,08,22,12.90
2015,08,30,08,23,14.50
2015,08,30,08,24,9.60
2015,08,30,08,25,8.10
2015,08,30,08,26,8.10
2015,08,30,08,27,14.50
2015,08,30,08,28,16.10
2015,08,30,08,29,16.10
2015,08,30,08,30,20.90
2015,08,30,08,31,17.70
2015,08,30,08,32,14.50
2015,08,30,08,33,17.70
2015,08,30,08,34,11.30
2015,08,30,08,35,17.70
2015,08,30,08,36,11.30
2015,08,30,08,37,16.10
2015,08,30,08,38,12.90
2015,08,30,08,39,14.50
2015,08,30,08,40,16.10
2015,08,30,08,41,16.10
2015,08,30,08,42,11.30
2015,08,30,08,43,11.30
2015,08,30,08,44,9.60
2015,08,30,08,45,9.60
2015,08,30,08,46,16.10
2015,08,30,08,47,11.30
2015,08,30,08,48,9.60
2015,08,30,08,49,17.70
2015,08,30,08,50,17.70
2015,08,30,08,51,17.70
2015,08,30,08,52,12.90
2015,08,30,08,53,14.50
2015,08,30,08,54,14.50
2015,08,30,08,55,11.30
2015,08,30,08,56,19.30
2015,08,30,08,57,16.10
2015,08,30,08,58,12.90
2015,08,30,08,59,9.60
2015,08,30,09,00,11.30
2015,08,30,09,01,14.50
2015,08,30,09,02,11.30
2015,08,30,09,03,6.40
2015,08,30,09,04,9.60
2015,08,30,09,05,11.30
2015,08,30,09,06,9.60
2015,08,30,09,07,8.10
2015,08,30,09,08,4.80
2015,08,30,09,11,8.10
2015,08,30,09,12,11.30
2015,08,30,09,13,8.10
2015,08,30,09,14,11.30
2015,08,30,09,15,11.30
2015,08,30,09,16,8.10
2015,08,30,09,17,9.60
2015,08,30,09,18,6.40
2015,08,30,09,19,8.10
2015,08,30,09,20,9.60
2015,08,30,09,21,9.60
2015,08,30,09,22,9.60
2015,08,30,09,23,8.10
2015,08,30,09,24,4.80
2015,08,30,09,25,6.40
2015,08,30,09,26,16.10
2015,08,30,09,27,9.60
2015,08,30,09,28,14.50
2015,08,30,09,29,11.30
2015,08,30,09,30,11.30
2015,08,30,09,31,8.10
2015,08,30,09,32,6.40
2015,08,30,09,33,4.80
2015,08,30,09,34,8.10
2015,08,30,09,35,6.40
2015,08,30,09,36,6.40
2015,08,30,09,39,9.60
2015,08,30,09,40,11.30
2015,08,30,09,41,16.10
2015,08,30,09,42,12.90
2015,08,30,09,43,11.30
2015,08,30,09,44,14.50
2015,08,30,09,45,8.10
2015,08,30,09,46,12.90
2015,08,30,09,47,9.60
2015,08,30,09,48,9.60
2015,08,30,09,49,12.90
2015,08,30,09,50,12.90
2015,08,30,09,51,16.10
2015,08,30,09,52,11.30
2015,08,30,09,53,4.80
2015,08,30,09,54,11.30
2015,08,30,09,55,16.10
2015,08,30,09,56,16.10
2015,08,30,09,57,19.30
2015,08,30,09,58,12.90
2015,08,30,09,59,9.60
2015,08,30,10,00,11.30
2015,08,30,10,01,11.30
2015,08,30,10,02,14.50
2015,08,30,10,03,14.50
2015,08,30,10,04,11.30
2015,08,30,10,05,12.90
2015,08,30,10,06,11.30
2015,08,30,10,07,9.60
2015,08,30,10,08,9.60
2015,08,30,10,09,9.60
2015,08,30,10,10,11.30
2015,08,30,10,11,11.30
2015,08,30,10,12,11.30
2015,08,30,10,13,8.10
2015,08,30,10,14,6.40
2015,08,30,10,15,8.10
2015,08,30,10,16,9.60
2015,08,30,10,17,11.30
2015,08,30,10,18,4.80
2015,08,30,10,19,9.60
2015,08,30,10,20,9.60
2015,08,30,10,21,8.10
2015,08,30,10,22,6.40
2015,08,30,10,23,9.60
2015,08,30,10,24,6.40
2015,08,30,10,25,14.50
2015,08,30,10,26,17.70
2015,08,30,10,27,17.70
2015,08,30,10,28,14.50
2015,08,30,10,29,9.60
2015,08,30,10,30,11.30
2015,08,30,10,31,8.10
2015,08,30,10,32,8.10
2015,08,30,10,33,8.10
2015,08,30,10,34,4.80
2015,08,30,10,37,12.90
2015,08,30,10,38,16.10
2015,08,30,10,39,11.30
2015,08,30,10,40,11.30
2015,08,30,10,41,9.60
2015,08,30,10,42,9.60
2015,08,30,10,43,19.30
2015,08,30,10,44,24.20
2015,08,30,10,45,17.70
2015,08,30,10,46,16.10
2015,08,30,10,47,11.30
2015,08,30,10,48,11.30
2015,08,30,10,49,16.10
2015,08,30,10,50,14.50
2015,08,30,10,51,11.30
2015,08,30,10,52,16.10
2015,08,30,10,53,14.50
2015,08,30,10,54,14.50
2015,08,30,10,55,14.50
2015,08,30,10,56,9.60
2015,08,30,10,57,6.40
2015,08,30,10,58,20.90
2015,08,30,10,59,16.10
2015,08,30,11,00,14.50
2015,08,30,11,01,12.90
2015,08,30,11,02,14.50
2015,08,30,11,03,9.60
2015,08,30,11,04,17.70
2015,08,30,11,05,19.30
2015,08,30,11,06,27.40
2015,08,30,11,07,24.20
2015,08,30,11,08,16.10
2015,08,30,11,09,11.30
2015,08,30,11,10,9.60
2015,08,30,11,11,11.30
2015,08,30,11,12,12.90
2015,08,30,11,13,8.10
2015,08,30,11,14,14.50
2015,08,30,11,15,16.10
2015,08,30,11,16,14.50
2015,08,30,11,17,24.20
2015,08,30,11,18,27.40
2015,08,30,11,19,16.10
2015,08,30,11,20,27.40
2015,08,30,11,21,14.50
2015,08,30,11,22,17.70
2015,08,30,11,23,19.30
2015,08,30,11,24,17.70
2015,08,30,11,25,16.10
2015,08,30,11,26,17.70
2015,08,30,11,27,19.30
2015,08,30,11,28,20.90
2015,08,30,11,29,20.90
2015,08,30,11,30,27.40
2015,08,30,11,31,19.30
2015,08,30,11,32,11.30
2015,08,30,11,33,14.50
2015,08,30,11,34,17.70
2015,08,30,11,35,14.50
2015,08,30,11,36,22.50
2015,08,30,11,37,16.10
2015,08,30,11,38,20.90
2015,08,30,11,39,17.70
2015,08,30,11,40,16.10
2015,08,30,11,41,16.10
2015,08,30,11,42,14.50
2015,08,30,11,43,19.30
2015,08,30,11,44,11.30
2015,08,30,11,45,3.20
2015,08,30,11,46,11.30
2015,08,30,11,47,9.60
2015,08,30,11,48,9.60
2015,08,30,11,49,16.10
2015,08,30,11,50,9.60
2015,08,30,11,51,8.10
2015,08,30,11,52,16.10
2015,08,30,11,53,17.70
2015,08,30,11,54,20.90
2015,08,30,11,55,24.20
2015,08,30,11,56,20.90
2015,08,30,11,57,24.20
2015,08,30,11,58,20.90
2015,08,30,11,59,22.50
2015,08,30,12,00,25.70
2015,08,30,12,01,17.70
2015,08,30,12,02,17.70
2015,08,30,12,03,27.40
2015,08,30,12,04,24.20
2015,08,30,12,05,19.30
2015,08,30,12,06,17.70
2015,08,30,12,07,22.50
2015,08,30,12,08,20.90
2015,08,30,12,09,20.90
2015,08,30,12,10,19.30
2015,08,30,12,11,17.70
2015,08,30,12,12,14.50
2015,08,30,12,13,22.50
2015,08,30,12,14,22.50
2015,08,30,12,15,17.70
2015,08,30,12,16,17.70
2015,08,30,12,17,17.70
2015,08,30,12,18,14.50
2015,08,30,12,19,8.10
2015,08,30,12,20,24.20
2015,08,30,12,21,24.20
2015,08,30,12,22,22.50
2015,08,30,12,23,22.50
2015,08,30,12,24,22.50
2015,08,30,12,25,22.50
2015,08,30,12,26,25.70
2015,08,30,12,27,17.70
2015,08,30,12,28,16.10
2015,08,30,12,29,16.10
2015,08,30,12,30,30.60
2015,08,30,12,31,25.70
2015,08,30,12,32,19.30
2015,08,30,12,33,17.70
2015,08,30,12,34,19.30
2015,08,30,12,35,19.30
2015,08,30,12,36,20.90
2015,08,30,12,37,24.20
2015,08,30,12,38,25.70
2015,08,30,12,39,17.70
2015,08,30,12,40,24.20
2015,08,30,12,41,25.70
2015,08,30,12,42,32.20
2015,08,30,12,43,24.20
2015,08,30,12,44,20.90
2015,08,30,12,45,19.30
2015,08,30,12,46,22.50
2015,08,30,12,47,24.20
2015,08,30,12,48,20.90
2015,08,30,12,49,19.30
2015,08,30,12,50,20.90
2015,08,30,12,51,17.70
2015,08,30,12,52,29.00
2015,08,30,12,53,22.50
2015,08,30,12,54,17.70
2015,08,30,12,55,24.20
2015,08,30,12,56,27.40
2015,08,30,12,57,20.90
2015,08,30,12,58,24.20
2015,08,30,12,59,27.40
2015,08,30,13,00,24.20
2015,08,30,13,01,19.30
2015,08,30,13,02,20.90
2015,08,30,13,03,19.30
2015,08,30,13,04,24.20
2015,08,30,13,05,20.90
2015,08,30,13,06,22.50
2015,08,30,13,07,20.90
2015,08,30,13,08,24.20
2015,08,30,13,09,16.10
2015,08,30,13,10,25.70
2015,08,30,13,11,16.10
2015,08,30,13,12,19.30
2015,08,30,13,13,14.50
2015,08,30,13,14,9.60
2015,08,30,13,15,20.90
2015,08,30,13,16,20.90
2015,08,30,13,17,20.90
2015,08,30,13,18,30.60
2015,08,30,13,19,27.40
2015,08,30,13,20,20.90
2015,08,30,13,21,24.20
2015,08,30,13,22,24.20
2015,08,30,13,23,20.90
2015,08,30,13,24,22.50
2015,08,30,13,25,22.50
2015,08,30,13,26,19.30
2015,08,30,13,27,22.50
2015,08,30,13,28,12.90
2015,08,30,13,29,9.60
2015,08,30,13,30,11.30
2015,08,30,13,31,17.70
2015,08,30,13,32,22.50
2015,08,30,13,33,17.70
2015,08,30,13,34,16.10
2015,08,30,13,35,9.60
2015,08,30,13,36,17.70
2015,08,30,13,37,16.10
2015,08,30,13,38,20.90
2015,08,30,13,39,20.90
2015,08,30,13,40,35.40
2015,08,30,13,41,19.30
2015,08,30,13,42,29.00
2015,08,30,13,43,24.20
2015,08,30,13,44,20.90
2015,08,30,13,45,20.90
2015,08,30,13,46,11.30
2015,08,30,13,47,11.30
2015,08,30,13,48,19.30
2015,08,30,13,49,27.40
2015,08,30,13,50,29.00
2015,08,30,13,51,29.00
2015,08,30,13,52,19.30
2015,08,30,13,53,24.20
2015,08,30,13,54,20.90
2015,08,30,13,55,20.90
2015,08,30,13,56,20.90
2015,08,30,13,57,27.40
2015,08,30,13,58,22.50
2015,08,30,13,59,22.50
2015,08,30,14,00,20.90
2015,08,30,14,01,16.10
2015,08,30,14,02,17.70
2015,08,30,14,03,16.10
2015,08,30,14,04,9.60
2015,08,30,14,05,19.30
2015,08,30,14,06,20.90
2015,08,30,14,07,19.30
2015,08,30,14,08,24.20
2015,08,30,14,09,17.70
2015,08,30,14,10,16.10
2015,08,30,14,11,14.50
2015,08,30,14,12,16.10
2015,08,30,14,13,9.60
2015,08,30,14,14,11.30
2015,08,30,14,15,14.50
2015,08,30,14,16,6.40
2015,08,30,14,17,17.70
2015,08,30,14,18,14.50
2015,08,30,14,19,11.30
2015,08,30,14,20,16.10
2015,08,30,14,21,14.50
2015,08,30,14,22,14.50
2015,08,30,14,23,6.40
2015,08,30,14,24,9.60
2015,08,30,14,25,14.50
2015,08,30,14,26,14.50
2015,08,30,14,27,11.30
2015,08,30,14,28,19.30
2015,08,30,14,29,17.70
2015,08,30,14,30,16.10
2015,08,30,14,31,17.70
2015,08,30,14,32,20.90
2015,08,30,14,33,19.30
2015,08,30,14,34,22.50
2015,08,30,14,35,17.70
2015,08,30,14,36,19.30
2015,08,30,14,37,19.30
2015,08,30,14,38,16.10
2015,08,30,14,39,14.50
2015,08,30,14,40,19.30
2015,08,30,14,41,17.70
2015,08,30,14,42,19.30
2015,08,30,14,43,17.70
2015,08,30,14,44,19.30
2015,08,30,14,45,22.50
2015,08,30,14,46,22.50
2015,08,30,14,47,22.50
2015,08,30,14,48,17.70
2015,08,30,14,49,19.30
2015,08,30,14,50,16.10
2015,08,30,14,51,24.20
2015,08,30,14,52,19.30
2015,08,30,14,53,19.30
2015,08,30,14,54,17.70
2015,08,30,14,55,16.10
2015,08,30,14,56,25.70
2015,08,30,14,57,17.70
2015,08,30,14,58,19.30
2015,08,30,14,59,22.50
2015,08,30,15,00,14.50
2015,08,30,15,01,19.30
2015,08,30,15,02,16.10
2015,08,30,15,03,14.50
2015,08,30,15,04,11.30
2015,08,30,15,05,16.10
2015,08,30,15,06,14.50
2015,08,30,15,07,14.50
2015,08,30,15,08,17.70
2015,08,30,15,09,11.30
2015,08,30,15,10,11.30
2015,08,30,15,11,17.70
2015,08,30,15,12,16.10
2015,08,30,15,13,17.70
2015,08,30,15,14,14.50
2015,08,30,15,15,14.50
2015,08,30,15,16,16.10
2015,08,30,15,17,17.70
2015,08,30,15,18,20.90
2015,08,30,15,19,29.00
2015,08,30,15,20,19.30
2015,08,30,15,21,16.10
2015,08,30,15,22,19.30
2015,08,30,15,23,24.20
2015,08,30,15,24,24.20
2015,08,30,15,25,14.50
2015,08,30,15,26,19.30
2015,08,30,15,27,22.50
2015,08,30,15,28,11.30
2015,08,30,15,29,19.30
2015,08,30,15,30,16.10
2015,08,30,15,31,24.20
2015,08,30,15,32,22.50
2015,08,30,15,33,27.40
2015,08,30,15,34,22.50
2015,08,30,15,35,25.70
2015,08,30,15,36,11.30
2015,08,30,15,37,9.60
2015,08,30,15,38,11.30
2015,08,30,15,39,11.30
2015,08,30,15,40,9.60
2015,08,30,15,41,8.10
2015,08,30,15,42,8.10
2015,08,30,15,43,12.90
2015,08,30,15,44,20.90
2015,08,30,15,45,24.20
2015,08,30,15,46,19.30
2015,08,30,15,47,19.30
2015,08,30,15,48,22.50
2015,08,30,15,49,19.30
2015,08,30,15,50,17.70
2015,08,30,15,51,19.30
2015,08,30,15,52,19.30
2015,08,30,15,53,8.10
2015,08,30,15,54,8.10
2015,08,30,15,55,8.10
2015,08,30,15,56,19.30
2015,08,30,15,57,19.30
2015,08,30,15,58,17.70
2015,08,30,15,59,20.90
2015,08,30,16,00,25.70
2015,08,30,16,01,16.10
2015,08,30,16,02,14.50
2015,08,30,16,03,24.20
2015,08,30,16,04,14.50
2015,08,30,16,05,24.20
2015,08,30,16,06,22.50
2015,08,30,16,07,16.10
2015,08,30,16,08,20.90
2015,08,30,16,09,24.20
2015,08,30,16,10,29.00
2015,08,30,16,11,25.70
2015,08,30,16,12,24.20
2015,08,30,16,13,19.30
2015,08,30,16,14,16.10
2015,08,30,16,15,22.50
2015,08,30,16,16,27.40
2015,08,30,16,17,20.90
2015,08,30,16,18,25.70
2015,08,30,16,19,29.00
2015,08,30,16,20,29.00
2015,08,30,16,21,17.70
2015,08,30,16,22,11.30
2015,08,30,16,23,17.70
2015,08,30,16,24,20.90
2015,08,30,16,25,25.70
2015,08,30,16,26,24.20
2015,08,30,16,27,24.20
2015,08,30,16,28,22.50
2015,08,30,16,29,24.20
2015,08,30,16,30,22.50
2015,08,30,16,31,17.70
2015,08,30,16,32,19.30
2015,08,30,16,33,30.60
2015,08,30,16,34,38.60
2015,08,30,16,35,27.40
2015,08,30,16,36,19.30
2015,08,30,16,37,20.90
2015,08,30,16,38,19.30
2015,08,30,16,39,22.50
2015,08,30,16,40,22.50
2015,08,30,16,41,20.90
2015,08,30,16,42,20.90
2015,08,30,16,43,17.70
2015,08,30,16,44,17.70
2015,08,30,16,45,11.30
2015,08,30,16,46,14.50
2015,08,30,16,47,20.90
2015,08,30,16,48,19.30
2015,08,30,16,49,16.10
2015,08,30,16,50,12.90
2015,08,30,16,51,16.10
2015,08,30,16,52,17.70
2015,08,30,16,53,19.30
2015,08,30,16,54,27.40
2015,08,30,16,55,24.20
2015,08,30,16,56,17.70
2015,08,30,16,57,16.10
2015,08,30,16,58,14.50
2015,08,30,16,59,9.60
2015,08,30,17,00,8.10
2015,08,30,17,01,14.50
2015,08,30,17,02,11.30
2015,08,30,17,03,11.30
2015,08,30,17,04,16.10
2015,08,30,17,05,14.50
2015,08,30,17,06,9.60
2015,08,30,17,07,17.70
2015,08,30,17,08,9.60
2015,08,30,17,09,11.30
2015,08,30,17,10,12.90
2015,08,30,17,11,22.50
2015,08,30,17,12,20.90
2015,08,30,17,13,19.30
2015,08,30,17,14,14.50
2015,08,30,17,15,16.10
2015,08,30,17,16,11.30
2015,08,30,17,17,8.10
2015,08,30,17,18,4.80
2015,08,30,17,19,6.40
2015,08,30,17,20,14.50
2015,08,30,17,21,16.10
2015,08,30,17,22,6.40
2015,08,30,17,23,17.70
2015,08,30,17,24,16.10
2015,08,30,17,25,14.50
2015,08,30,17,26,20.90
2015,08,30,17,27,12.90
2015,08,30,17,28,20.90
2015,08,30,17,29,20.90
2015,08,30,17,30,11.30
2015,08,30,17,31,19.30
2015,08,30,17,32,20.90
2015,08,30,17,33,11.30
2015,08,30,17,34,8.10
2015,08,30,17,35,14.50
2015,08,30,17,36,11.30
2015,08,30,17,37,9.60
2015,08,30,17,38,9.60
2015,08,30,17,39,12.90
2015,08,30,17,40,14.50
2015,08,30,17,41,16.10
2015,08,30,17,42,14.50
2015,08,30,17,43,6.40
2015,08,30,17,44,11.30
2015,08,30,17,45,16.10
2015,08,30,17,46,6.40
2015,08,30,17,47,6.40
2015,08,30,17,48,6.40
2015,08,30,17,49,4.80
2015,08,30,17,50,17.70
2015,08,30,17,51,6.40
2015,08,30,17,52,8.10
2015,08,30,17,53,4.80
2015,08,30,17,54,11.30
2015,08,30,17,55,11.30
2015,08,30,17,56,11.30
2015,08,30,17,57,8.10
2015,08,30,17,58,9.60
2015,08,30,17,59,11.30
2015,08,30,18,00,11.30
2015,08,30,18,01,14.50
2015,08,30,18,02,17.70
2015,08,30,18,03,12.90
2015,08,30,18,04,16.10
2015,08,30,18,05,16.10
2015,08,30,18,06,9.60
2015,08,30,18,07,9.60
2015,08,30,18,08,9.60
2015,08,30,18,09,16.10
2015,08,30,18,10,16.10
2015,08,30,18,11,8.10
2015,08,30,18,12,11.30
2015,08,30,18,13,8.10
2015,08,30,18,14,14.50
2015,08,30,18,15,11.30
2015,08,30,18,16,14.50
2015,08,30,18,17,11.30
2015,08,30,18,18,11.30
2015,08,30,18,19,16.10
2015,08,30,18,20,9.60
2015,08,30,18,21,9.60
2015,08,30,18,22,8.10
2015,08,30,18,23,8.10
2015,08,30,18,24,9.60
2015,08,30,18,25,16.10
2015,08,30,18,26,11.30
2015,08,30,18,27,11.30
2015,08,30,18,28,12.90
2015,08,30,18,29,8.10
2015,08,30,18,30,9.60
2015,08,30,18,31,14.50
2015,08,30,18,32,14.50
2015,08,30,18,33,11.30
2015,08,30,18,34,17.70
2015,08,30,18,35,16.10
2015,08,30,18,36,11.30
2015,08,30,18,37,14.50
2015,08,30,18,38,11.30
2015,08,30,18,39,16.10
2015,08,30,18,40,11.30
2015,08,30,18,41,9.60
2015,08,30,18,42,9.60
2015,08,30,18,43,14.50
2015,08,30,18,44,9.60
2015,08,30,18,45,14.50
2015,08,30,18,46,20.90
2015,08,30,18,47,19.30
2015,08,30,18,48,16.10
2015,08,30,18,49,16.10
2015,08,30,18,50,20.90
2015,08,30,18,51,16.10
2015,08,30,18,52,14.50
2015,08,30,18,53,14.50
2015,08,30,18,54,12.90
2015,08,30,18,55,14.50
2015,08,30,18,56,11.30
2015,08,30,18,57,6.40
2015,08,30,18,58,4.80
2015,08,30,18,59,6.40
2015,08,30,19,00,11.30
2015,08,30,19,01,8.10
2015,08,30,19,02,6.40
2015,08,30,19,03,6.40
2015,08,30,19,04,3.20
2015,08,30,19,05,6.40
2015,08,30,19,06,4.80
2015,08,30,19,07,6.40
2015,08,30,19,08,9.60
2015,08,30,19,09,9.60
2015,08,30,19,10,14.50
2015,08,30,19,11,9.60
2015,08,30,19,12,11.30
2015,08,30,19,13,8.10
2015,08,30,19,14,17.70
2015,08,30,19,15,12.90
2015,08,30,19,16,9.60
2015,08,30,19,17,14.50
2015,08,30,19,18,14.50
2015,08,30,19,19,17.70
2015,08,30,19,20,16.10
2015,08,30,19,21,14.50
2015,08,30,19,22,11.30
2015,08,30,19,23,11.30
2015,08,30,19,24,14.50
2015,08,30,19,25,12.90
2015,08,30,19,26,16.10
2015,08,30,19,27,11.30
2015,08,30,19,28,4.80
2015,08,30,19,29,3.20
2015,08,30,19,30,4.80
2015,08,30,19,31,9.60
2015,08,30,19,32,11.30
2015,08,30,19,33,17.70
2015,08,30,19,34,19.30
2015,08,30,19,35,30.60
2015,08,30,19,36,20.90
2015,08,30,19,37,8.10
2015,08,30,19,38,6.40
2015,08,30,19,39,11.30
2015,08,30,19,40,9.60
2015,08,30,19,41,8.10
2015,08,30,19,42,14.50
2015,08,30,19,43,11.30
2015,08,30,19,44,8.10
2015,08,30,19,45,11.30
2015,08,30,19,46,8.10
2015,08,30,19,47,11.30
2015,08,30,19,48,6.40
2015,08,30,19,49,6.40
2015,08,30,19,50,6.40
2015,08,30,19,51,14.50
2015,08,30,19,52,11.30
2015,08,30,19,53,6.40
2015,08,30,19,54,6.40
2015,08,30,19,55,4.80
2015,08,30,19,56,16.10
2015,08,30,19,57,9.60
2015,08,30,19,58,8.10
2015,08,30,19,59,4.80
2015,08,30,20,00,17.70
2015,08,30,20,01,22.50
2015,08,30,20,02,25.70
2015,08,30,20,03,17.70
2015,08,30,20,04,11.30
2015,08,30,20,05,16.10
2015,08,30,20,06,8.10
2015,08,30,20,07,3.20
2015,08,30,20,08,11.30
2015,08,30,20,09,8.10
2015,08,30,20,10,4.80
2015,08,30,20,11,6.40
2015,08,30,20,12,6.40
2015,08,30,20,13,9.60
2015,08,30,20,14,16.10
2015,08,30,20,15,14.50
2015,08,30,20,16,11.30
2015,08,30,20,17,8.10
2015,08,30,20,18,8.10
2015,08,30,20,19,6.40
2015,08,30,20,20,6.40
2015,08,30,20,21,8.10
2015,08,30,20,22,8.10
2015,08,30,20,23,11.30
2015,08,30,20,24,9.60
2015,08,30,20,25,6.40
2015,08,30,20,26,17.70
2015,08,30,20,27,17.70
2015,08,30,20,28,8.10
2015,08,30,20,29,4.80
2015,08,30,20,30,14.50
2015,08,30,20,31,14.50
2015,08,30,20,32,6.40
2015,08,30,20,33,8.10
2015,08,30,20,34,22.50
2015,08,30,20,35,29.00
2015,08,30,20,36,20.90
2015,08,30,20,37,14.50
2015,08,30,20,38,19.30
2015,08,30,20,39,19.30
2015,08,30,20,40,12.90
2015,08,30,20,41,11.30
2015,08,30,20,42,9.60
2015,08,30,20,43,22.50
2015,08,30,20,44,20.90
2015,08,30,20,45,20.90
2015,08,30,20,46,20.90
2015,08,30,20,47,35.40
2015,08,30,20,48,27.40
2015,08,30,20,49,20.90
2015,08,30,20,50,20.90
2015,08,30,20,51,16.10
2015,08,30,20,52,11.30
2015,08,30,20,53,24.20
2015,08,30,20,54,19.30
2015,08,30,20,55,9.60
2015,08,30,20,56,19.30
2015,08,30,20,57,16.10
2015,08,30,20,58,24.20
2015,08,30,20,59,16.10
2015,08,30,21,00,17.70
2015,08,30,21,01,27.40
2015,08,30,21,02,17.70
2015,08,30,21,03,20.90
2015,08,30,21,04,11.30
2015,08,30,21,05,16.10
2015,08,30,21,06,14.50
2015,08,30,21,07,20.90
2015,08,30,21,08,17.70
2015,08,30,21,09,20.90
2015,08,30,21,10,14.50
2015,08,30,21,11,17.70
2015,08,30,21,12,16.10
2015,08,30,21,13,11.30
2015,08,30,21,14,16.10
2015,08,30,21,15,16.10
2015,08,30,21,16,12.90
2015,08,30,21,17,17.70
2015,08,30,21,18,12.90
2015,08,30,21,19,8.10
2015,08,30,21,20,8.10
2015,08,30,21,21,11.30
2015,08,30,21,22,11.30
2015,08,30,21,23,20.90
2015,08,30,21,24,11.30
2015,08,30,21,25,14.50
2015,08,30,21,26,9.60
2015,08,30,21,27,14.50
2015,08,30,21,28,16.10
2015,08,30,21,29,17.70
2015,08,30,21,30,17.70
2015,08,30,21,31,11.30
2015,08,30,21,32,16.10
2015,08,30,21,33,19.30
2015,08,30,21,34,9.60
2015,08,30,21,35,14.50
2015,08,30,21,36,9.60
2015,08,30,21,37,19.30
2015,08,30,21,38,14.50
2015,08,30,21,39,8.10
2015,08,30,21,40,9.60
2015,08,30,21,41,9.60
2015,08,30,21,42,9.60
2015,08,30,21,43,14.50
2015,08,30,21,44,14.50
2015,08,30,21,45,9.60
2015,08,30,21,46,11.30
2015,08,30,21,47,16.10
2015,08,30,21,48,16.10
2015,08,30,21,49,16.10
2015,08,30,21,50,9.60
2015,08,30,21,51,14.50
2015,08,30,21,52,14.50
2015,08,30,21,53,16.10
2015,08,30,21,54,14.50
2015,08,30,21,55,12.90
2015,08,30,21,56,14.50
2015,08,30,21,57,12.90
2015,08,30,21,58,14.50
2015,08,30,21,59,17.70
2015,08,30,22,00,16.10
2015,08,30,22,01,16.10
2015,08,30,22,02,16.10
2015,08,30,22,03,17.70
2015,08,30,22,04,20.90
2015,08,30,22,05,17.70
2015,08,30,22,06,16.10
2015,08,30,22,07,19.30
2015,08,30,22,08,17.70
2015,08,30,22,09,16.10
2015,08,30,22,10,16.10
2015,08,30,22,11,22.50
2015,08,30,22,12,16.10
2015,08,30,22,13,22.50
2015,08,30,22,14,14.50
2015,08,30,22,15,17.70
2015,08,30,22,16,14.50
2015,08,30,22,17,20.90
2015,08,30,22,18,9.60
2015,08,30,22,19,14.50
2015,08,30,22,20,17.70
2015,08,30,22,21,16.10
2015,08,30,22,22,19.30
2015,08,30,22,23,16.10
2015,08,30,22,24,16.10
2015,08,30,22,25,14.50
2015,08,30,22,26,12.90
2015,08,30,22,27,16.10
2015,08,30,22,28,17.70
2015,08,30,22,29,12.90
2015,08,30,22,30,11.30
2015,08,30,22,31,12.90
2015,08,30,22,32,14.50
2015,08,30,22,33,19.30
2015,08,30,22,34,20.90
2015,08,30,22,35,12.90
2015,08,30,22,36,19.30
2015,08,30,22,37,20.90
2015,08,30,22,38,14.50
2015,08,30,22,39,12.90
2015,08,30,22,40,11.30
2015,08,30,22,41,16.10
2015,08,30,22,42,17.70
2015,08,30,22,43,11.30
2015,08,30,22,44,16.10
2015,08,30,22,45,17.70
2015,08,30,22,46,12.90
2015,08,30,22,47,11.30
2015,08,30,22,48,17.70
2015,08,30,22,49,17.70
2015,08,30,22,50,14.50
2015,08,30,22,51,14.50
2015,08,30,22,52,17.70
2015,08,30,22,53,11.30
2015,08,30,22,54,16.10
2015,08,30,22,55,14.50
2015,08,30,22,56,19.30
2015,08,30,22,57,19.30
2015,08,30,22,58,11.30
2015,08,30,22,59,12.90
2015,08,30,23,00,16.10
2015,08,30,23,01,11.30
2015,08,30,23,02,17.70
2015,08,30,23,03,11.30
2015,08,30,23,04,17.70
2015,08,30,23,05,11.30
2015,08,30,23,06,16.10
2015,08,30,23,07,16.10
2015,08,30,23,08,8.10
2015,08,30,23,09,14.50
2015,08,30,23,10,11.30
2015,08,30,23,11,11.30
2015,08,30,23,12,22.50
2015,08,30,23,13,17.70
2015,08,30,23,14,19.30
2015,08,30,23,15,14.50
2015,08,30,23,16,16.10
2015,08,30,23,17,14.50
2015,08,30,23,18,17.70
2015,08,30,23,19,19.30
2015,08,30,23,20,22.50
2015,08,30,23,21,14.50
2015,08,30,23,22,14.50
2015,08,30,23,23,16.10
2015,08,30,23,24,11.30
2015,08,30,23,25,9.60
2015,08,30,23,26,11.30
2015,08,30,23,27,16.10
2015,08,30,23,28,17.70
2015,08,30,23,29,11.30
2015,08,30,23,30,19.30
2015,08,30,23,31,14.50
2015,08,30,23,32,11.30
2015,08,30,23,33,9.60
2015,08,30,23,34,14.50
2015,08,30,23,35,16.10
2015,08,30,23,36,12.90
2015,08,30,23,37,16.10
2015,08,30,23,38,11.30
2015,08,30,23,39,11.30
2015,08,30,23,40,16.10
2015,08,30,23,41,19.30
2015,08,30,23,42,11.30
2015,08,30,23,43,4.80
2015,08,30,23,44,17.70
2015,08,30,23,45,16.10
2015,08,30,23,46,9.60
2015,08,30,23,47,6.40
2015,08,30,23,48,11.30
2015,08,30,23,49,11.30
2015,08,30,23,50,17.70
2015,08,30,23,51,16.10
2015,08,30,23,52,19.30
2015,08,30,23,53,11.30
2015,08,30,23,54,20.90
2015,08,30,23,55,16.10
2015,08,30,23,56,19.30
2015,08,30,23,57,19.30
2015,08,30,23,58,9.60
2015,08,30,23,59,16.10
